Location: *
(35.1919°N, 102.0647°W)
Time: 17:47:27
(UTC+00:00)

Daily predictions for brighter satellites

Satellite Brightness Start Highest point End
(mag) Time Altitude Azimuth Time Altitude Azimuth Time Altitude Azimuth
STARLINK-1042 4.1 12:00:02 10° WSW 12:04:00 45° NW 12:07:59 10° NE
CENTAUR R/B 3.5 12:00:49 10° WSW 12:05:55 29° NW 12:11:44 10° NNE
STARLINK-29 3.7 12:03:18 10° WNW 12:06:17 34° SW 12:09:15 10° SSE
STARLINK-1056 4.3 12:05:04 10° WSW 12:08:59 41° NW 12:12:55 10° NNE
ATLAS 5 CENTAUR R/B 3.7 12:05:54 10° NNW 12:11:40 48° NE 12:18:12 10° SE
